This is the latest recevied weather packets stored in our database for station/object W8RD. If no packets are shown the sender has not sent any weather packets the latest 10 day(s).
| Time | Temp. | Humidity | Pressure | Rain* | Wind** | Luminosity | Snow |
|---|---|---|---|---|---|---|---|
| 1777846311 | 25° C | 61% | 1016.3 hPa | 0 mm | - | 58 W/m² | - |
| 1777845709 | 25.56° C | 58% | 1016.5 hPa | 0 mm | - | 75 W/m² | - |
| 1777845109 | 25° C | 59% | 1016.6 hPa | 0 mm | - | 96 W/m² | - |
| 1777844509 | 25.56° C | 59% | 1016.5 hPa | 0 mm | - | 145 W/m² | - |
| 1777843905 | 26.11° C | 58% | 1016.6 hPa | 0 mm | - | 188 W/m² | - |
| 1777843300 | 26.67° C | 56% | 1016.6 hPa | 0 mm | - | 419 W/m² | - |
| 1777842698 | 26.67° C | 56% | 1016.6 hPa | 0 mm | - | 298 W/m² | - |
| 1777842098 | 27.78° C | 53% | 1016.6 hPa | 0 mm | - | 467 W/m² | - |
| 1777841495 | 27.22° C | 54% | 1016.7 hPa | 0 mm | - | 500 W/m² | - |
| 1777840895 | 27.78° C | 54% | 1016.7 hPa | 0 mm | - | 536 W/m² | - |
| 1777840295 | 27.78° C | 51% | 1016.8 hPa | 0 mm | - | 570 W/m² | - |
| 1777839690 | 27.78° C | 51% | 1016.9 hPa | 0 mm | - | 607 W/m² | - |
| 1777839085 | 28.33° C | 50% | 1017 hPa | 0 mm | - | 637 W/m² | - |
| 1777838484 | 28.33° C | 51% | 1017.1 hPa | 0 mm | - | 679 W/m² | - |
| 1777837883 | 28.33° C | 53% | 1017.3 hPa | 0 mm | - | 730 W/m² | - |
| 1777837281 | 27.22° C | 53% | 1017.3 hPa | 0 mm | - | 680 W/m² | - |
| 1777836680 | 26.67° C | 56% | 1017.6 hPa | 0 mm | - | 805 W/m² | - |
| 1777836078 | 27.78° C | 50% | 1017.6 hPa | 0 mm | - | 940 W/m² | - |
| 1777835477 | 27.22° C | 50% | 1018 hPa | 0 mm | - | 469 W/m² | - |
| 1777834877 | 26.11° C | 50% | 1018.1 hPa | 0 mm | - | 639 W/m² | - |
| 1777834274 | 26.11° C | 50% | 1018.4 hPa | 0 mm | - | 324 W/m² | - |
| 1777833672 | 26.67° C | 51% | 1018.5 hPa | 0 mm | - | 471 W/m² | - |
| 1777833072 | 26.11° C | 52% | 1018.5 hPa | 0 mm | - | 900 W/m² | - |
| 1777832468 | 25.56° C | 55% | 1018.6 hPa | 0 mm | - | 399 W/m² | - |
| 1777831867 | 26.11° C | 53% | 1018.6 hPa | 0 mm | - | 443 W/m² | - |
* Rain latest hour (hover to see other rain measurements)
** Current wind speed in m/s (hover to see current wind gust speed)